"read_dt","SO2 (ppb)","flags","PMT voltage (V)","lamp voltage (V)","lamp intensity (Hz)","internal temp (C)","react chamber temp (C)","sample flow (l/min)","pres (mmHg)","SO2 bkg (ppb)","SO2 coefficient"
2016-03-07 00:00:00,1889E-3,5C000400,-0724,0839,12141,031.5,045.5,0.249,758.0,01.16,0.508
2016-03-07 00:01:00,1982E-3,5C000400,-0724,0839,12158,031.5,045.5,0.249,758.0,01.16,0.508
2016-03-07 00:02:00,1763E-3,5C000400,-0724,0840,12089,031.5,045.5,0.249,758.0,01.16,0.508
2016-03-07 00:03:00,1812E-3,5C000400,-0724,0839,12070,031.5,045.5,0.249,758.1,01.16,0.508
2016-03-07 00:04:00,1793E-3,5C000400,-0724,0839,12106,031.5,045.5,0.249,758.0,01.16,0.508
2016-03-07 00:05:00,1789E-3,5C000400,-0724,0839,12196,031.5,045.5,0.249,758.1,01.16,0.508
2016-03-07 00:06:00,1847E-3,5C000400,-0724,0839,12163,031.5,045.5,0.250,758.1,01.16,0.508
2016-03-07 00:07:00,1738E-3,5C000400,-0724,0840,12203,031.5,045.5,0.250,758.2,01.16,0.508
2016-03-07 00:08:00,1841E-3,5C000400,-0724,0839,12005,031.4,045.5,0.250,758.2,01.16,0.508
2016-03-07 00:09:00,1869E-3,5C000400,-0724,0839,12261,031.4,045.5,0.249,758.2,01.16,0.508
2016-03-07 00:10:00,1709E-3,5C000400,-0724,0839,12096,031.4,045.5,0.249,758.2,01.16,0.508
2016-03-07 00:11:00,1843E-3,5C000400,-0724,0838,12018,031.4,045.5,0.249,758.2,01.16,0.508
2016-03-07 00:12:00,1762E-3,5C000400,-0724,0839,12154,031.4,045.5,0.249,758.1,01.16,0.508
2016-03-07 00:13:00,1844E-3,5C000400,-0724,0839,12069,031.4,045.5,0.249,758.1,01.16,0.508
2016-03-07 00:14:00,1906E-3,5C000400,-0724,0838,12131,031.4,045.5,0.249,758.0,01.16,0.508
2016-03-07 00:15:00,1814E-3,5C000400,-0724,0839,12146,031.4,045.5,0.249,758.0,01.16,0.508
2016-03-07 00:16:00,1894E-3,5C000400,-0724,0839,12048,031.4,045.5,0.249,758.0,01.16,0.508
2016-03-07 00:17:00,1876E-3,5C000400,-0724,0838,11920,031.4,045.5,0.249,757.9,01.16,0.508
2016-03-07 00:18:00,1917E-3,5C000400,-0724,0839,12011,031.4,045.5,0.249,757.9,01.16,0.508
2016-03-07 00:19:00,1777E-3,5C000400,-0724,0839,12040,031.4,045.5,0.249,758.0,01.16,0.508
2016-03-07 00:20:00,1758E-3,5C000400,-0724,0839,12071,031.4,045.5,0.249,758.0,01.16,0.508
2016-03-07 00:21:00,1861E-3,5C000400,-0724,0839,12098,031.4,045.5,0.250,757.9,01.16,0.508
2016-03-07 00:22:00,1797E-3,5C000400,-0724,0839,12151,031.4,045.5,0.250,758.0,01.16,0.508
2016-03-07 00:23:00,1814E-3,5C000400,-0724,0839,12092,031.4,045.5,0.250,758.0,01.16,0.508
2016-03-07 00:24:00,1805E-3,5C000400,-0724,0839,12137,031.3,045.5,0.250,758.0,01.16,0.508
2016-03-07 00:25:00,1812E-3,5C000400,-0724,0838,12142,031.3,045.5,0.250,758.0,01.16,0.508
2016-03-07 00:26:00,1718E-3,5C000400,-0724,0838,12108,031.4,045.5,0.250,758.1,01.16,0.508
2016-03-07 00:27:00,1913E-3,5C000400,-0724,0838,12095,031.3,045.5,0.250,758.1,01.16,0.508
2016-03-07 00:28:00,1911E-3,5C000400,-0724,0839,12152,031.3,045.5,0.250,758.1,01.16,0.508
2016-03-07 00:29:00,1826E-3,5C000400,-0724,0838,12148,031.3,045.5,0.250,758.1,01.16,0.508
2016-03-07 00:30:00,1946E-3,5C000400,-0724,0839,12071,031.3,045.5,0.249,758.1,01.16,0.508
2016-03-07 00:31:00,1881E-3,5C000400,-0724,0838,12097,031.3,045.5,0.249,758.0,01.16,0.508
2016-03-07 00:32:00,1914E-3,5C000400,-0724,0838,12144,031.3,045.5,0.249,758.0,01.16,0.508
2016-03-07 00:33:00,1937E-3,5C000400,-0724,0838,12188,031.3,045.5,0.249,757.9,01.16,0.508
2016-03-07 00:34:00,1661E-3,5C000400,-0724,0840,12111,031.3,045.5,0.250,757.9,01.16,0.508
2016-03-07 00:35:00,1798E-3,5C000400,-0724,0839,12115,031.3,045.5,0.250,758.0,01.16,0.508
2016-03-07 00:36:00,1816E-3,5C000400,-0724,0839,12244,031.3,045.5,0.250,758.1,01.16,0.508
2016-03-07 00:37:00,1865E-3,5C000400,-0724,0839,12165,031.3,045.5,0.250,758.1,01.16,0.508
2016-03-07 00:38:00,1952E-3,5C000400,-0724,0839,12084,031.3,045.5,0.250,758.1,01.16,0.508
2016-03-07 00:39:00,1729E-3,5C000400,-0724,0838,12033,031.3,045.5,0.250,758.1,01.16,0.508
2016-03-07 00:40:00,1824E-3,5C000400,-0724,0838,12198,031.3,045.5,0.250,758.1,01.16,0.508
2016-03-07 00:41:00,1825E-3,5C000400,-0724,0839,12071,031.3,045.5,0.250,758.2,01.16,0.508
2016-03-07 00:42:00,1851E-3,5C000400,-0724,0838,12217,031.3,045.5,0.250,758.1,01.16,0.508
2016-03-07 00:43:00,1857E-3,5C000400,-0724,0838,12094,031.3,045.5,0.250,758.1,01.16,0.508
2016-03-07 00:44:00,1849E-3,5C000400,-0724,0839,12188,031.3,045.5,0.250,758.1,01.16,0.508
2016-03-07 00:45:00,1689E-3,5C000400,-0724,0840,12142,031.3,045.5,0.250,758.1,01.16,0.508
2016-03-07 00:46:00,1967E-3,5C000400,-0724,0839,12045,031.3,045.5,0.249,758.1,01.16,0.508
2016-03-07 00:47:00,1872E-3,5C000400,-0724,0839,12058,031.3,045.5,0.249,758.0,01.16,0.508
2016-03-07 00:48:00,1788E-3,5C000400,-0724,0839,12269,031.3,045.5,0.249,758.0,01.16,0.508
2016-03-07 00:49:00,1814E-3,5C000400,-0724,0839,12271,031.3,045.5,0.250,758.1,01.16,0.508
2016-03-07 00:50:00,1777E-3,5C000400,-0724,0839,12007,031.3,045.5,0.250,758.1,01.16,0.508
2016-03-07 00:51:00,1866E-3,5C000400,-0724,0839,12070,031.3,045.5,0.250,758.1,01.16,0.508
2016-03-07 00:52:00,1837E-3,5C000400,-0724,0839,12107,031.3,045.5,0.250,758.1,01.16,0.508
2016-03-07 00:53:00,1827E-3,5C000400,-0724,0840,12224,031.3,045.5,0.250,758.1,01.16,0.508
2016-03-07 00:54:00,1882E-3,5C000400,-0724,0840,12234,031.3,045.5,0.250,758.2,01.16,0.508
2016-03-07 00:55:00,1910E-3,5C000400,-0724,0839,12222,031.3,045.5,0.250,758.1,01.16,0.508
2016-03-07 00:56:00,1903E-3,5C000400,-0724,0838,12138,031.3,045.5,0.250,758.0,01.16,0.508
2016-03-07 00:57:00,1860E-3,5C000400,-0724,0839,12054,031.3,045.5,0.250,758.1,01.16,0.508
2016-03-07 00:58:00,1885E-3,5C000400,-0724,0839,12176,031.3,045.5,0.250,758.0,01.16,0.508
2016-03-07 00:59:00,1898E-3,5C000400,-0724,0839,12083,031.3,045.5,0.250,758.0,01.16,0.508
2016-03-07 01:00:00,1910E-3,5C000400,-0724,0839,12235,031.3,045.5,0.250,757.9,01.16,0.508
2016-03-07 01:01:00,1960E-3,5C000400,-0724,0839,11968,031.3,045.5,0.250,757.9,01.16,0.508
2016-03-07 01:02:00,1883E-3,5C000400,-0724,0838,12058,031.3,045.5,0.250,757.8,01.16,0.508
2016-03-07 01:03:00,1745E-3,5C000400,-0724,0839,12088,031.3,045.5,0.250,757.8,01.16,0.508
2016-03-07 01:04:00,1723E-3,5C000400,-0724,0838,12006,031.3,045.5,0.250,757.7,01.16,0.508
2016-03-07 01:05:00,1793E-3,5C000400,-0724,0839,12111,031.3,045.5,0.250,757.8,01.16,0.508
2016-03-07 01:06:00,1944E-3,5C000400,-0724,0839,12065,031.3,045.5,0.250,757.8,01.16,0.508
2016-03-07 01:07:00,1904E-3,5C000400,-0724,0840,12121,031.3,045.5,0.250,757.8,01.16,0.508
2016-03-07 01:08:00,1698E-3,5C000400,-0724,0838,11977,031.3,045.5,0.250,757.9,01.16,0.508
2016-03-07 01:09:00,1975E-3,5C000400,-0724,0839,12094,031.3,045.5,0.249,757.9,01.16,0.508
2016-03-07 01:10:00,1889E-3,5C000400,-0724,0838,12062,031.3,045.5,0.249,757.9,01.16,0.508
2016-03-07 01:11:00,1872E-3,5C000400,-0724,0839,12108,031.3,045.5,0.249,757.9,01.16,0.508
2016-03-07 01:12:00,1818E-3,5C000400,-0724,0838,12071,031.3,045.5,0.249,757.9,01.16,0.508
2016-03-07 01:13:00,1790E-3,5C000400,-0724,0839,12145,031.3,045.5,0.249,757.8,01.16,0.508
2016-03-07 01:14:00,1861E-3,5C000400,-0724,0839,12133,031.3,045.5,0.249,757.8,01.16,0.508
2016-03-07 01:15:00,1880E-3,5C000400,-0724,0838,12206,031.3,045.5,0.249,757.8,01.16,0.508
2016-03-07 01:16:00,1889E-3,5C000400,-0724,0839,12111,031.3,045.5,0.250,757.8,01.16,0.508
2016-03-07 01:17:00,1855E-3,5C000400,-0724,0839,12062,031.3,045.5,0.250,757.8,01.16,0.508
2016-03-07 01:18:00,1817E-3,5C000400,-0724,0839,12042,031.3,045.5,0.250,757.8,01.16,0.508
2016-03-07 01:19:00,1742E-3,5C000400,-0724,0839,12127,031.3,045.5,0.250,757.9,01.16,0.508
2016-03-07 01:20:00,1828E-3,5C000400,-0724,0838,11985,031.3,045.5,0.250,757.9,01.16,0.508
2016-03-07 01:21:00,1921E-3,5C000400,-0724,0839,12191,031.3,045.5,0.250,757.9,01.16,0.508
2016-03-07 01:22:00,1779E-3,5C000400,-0724,0839,12214,031.3,045.5,0.250,757.9,01.16,0.508
2016-03-07 01:23:00,1691E-3,5C000400,-0724,0839,12098,031.3,045.5,0.250,758.0,01.16,0.508
2016-03-07 01:24:00,1687E-3,5C000400,-0724,0839,12123,031.3,045.5,0.250,757.9,01.16,0.508
2016-03-07 01:25:00,1869E-3,5C000400,-0724,0839,12191,031.3,045.5,0.250,757.9,01.16,0.508
2016-03-07 01:26:00,1894E-3,5C000400,-0724,0840,12046,031.3,045.5,0.250,757.9,01.16,0.508
2016-03-07 01:27:00,1902E-3,5C000400,-0724,0839,12123,031.3,045.5,0.250,757.9,01.16,0.508
2016-03-07 01:28:00,1859E-3,5C000400,-0724,0840,12124,031.3,045.5,0.250,758.0,01.16,0.508
2016-03-07 01:29:00,1927E-3,5C000400,-0724,0840,12212,031.3,045.5,0.249,758.0,01.16,0.508
2016-03-07 01:30:00,1852E-3,5C000400,-0724,0838,11952,031.3,045.5,0.249,758.0,01.16,0.508
2016-03-07 01:31:00,1761E-3,5C000400,-0724,0839,12107,031.3,045.5,0.249,758.0,01.16,0.508
2016-03-07 01:32:00,1948E-3,5C000400,-0724,0838,12123,031.3,045.5,0.249,758.0,01.16,0.508
2016-03-07 01:33:00,1832E-3,5C000400,-0724,0839,11992,031.3,045.5,0.249,758.0,01.16,0.508
2016-03-07 01:34:00,1832E-3,5C000400,-0724,0839,12022,031.4,045.5,0.249,758.0,01.16,0.508
2016-03-07 01:35:00,1877E-3,5C000400,-0724,0838,12126,031.3,045.5,0.249,758.0,01.16,0.508
2016-03-07 01:36:00,1950E-3,5C000400,-0724,0839,11943,031.3,045.5,0.249,758.0,01.16,0.508
2016-03-07 01:37:00,1796E-3,5C000400,-0724,0839,11986,031.3,045.5,0.250,758.0,01.16,0.508
2016-03-07 01:38:00,1888E-3,5C000400,-0724,0838,12167,031.3,045.5,0.250,757.9,01.16,0.508
2016-03-07 01:39:00,1662E-3,5C000400,-0724,0839,12115,031.4,045.5,0.250,758.0,01.16,0.508
2016-03-07 01:40:00,1824E-3,5C000400,-0724,0838,11989,031.4,045.5,0.250,758.0,01.16,0.508
2016-03-07 01:41:00,1734E-3,5C000400,-0724,0840,12226,031.4,045.5,0.250,758.0,01.16,0.508
2016-03-07 01:42:00,1950E-3,5C000400,-0724,0839,12082,031.3,045.5,0.250,757.9,01.16,0.508
2016-03-07 01:43:00,1893E-3,5C000400,-0724,0839,12195,031.4,045.5,0.250,757.9,01.16,0.508
2016-03-07 01:44:00,1819E-3,5C000400,-0724,0839,12070,031.3,045.5,0.250,757.8,01.16,0.508
2016-03-07 01:45:00,1778E-3,5C000400,-0724,0839,11957,031.4,045.5,0.250,757.8,01.16,0.508
2016-03-07 01:46:00,1774E-3,5C000400,-0724,0840,11990,031.4,045.5,0.250,757.8,01.16,0.508
2016-03-07 01:47:00,1920E-3,5C000400,-0724,0838,12116,031.3,045.5,0.250,757.9,01.16,0.508
2016-03-07 01:48:00,1783E-3,5C000400,-0724,0838,11913,031.3,045.5,0.250,757.8,01.16,0.508
2016-03-07 01:49:00,1967E-3,5C000400,-0724,0839,12081,031.3,045.5,0.249,757.7,01.16,0.508
2016-03-07 01:50:00,1816E-3,5C000400,-0724,0839,12102,031.4,045.5,0.249,757.8,01.16,0.508
2016-03-07 01:51:00,1772E-3,5C000400,-0724,0839,12186,031.4,045.5,0.249,757.9,01.16,0.508
2016-03-07 01:52:00,1813E-3,5C000400,-0724,0839,12119,031.4,045.5,0.249,757.8,01.16,0.508
2016-03-07 01:53:00,1891E-3,5C000400,-0724,0839,12155,031.4,045.5,0.249,757.8,01.16,0.508
2016-03-07 01:54:00,1774E-3,5C000400,-0724,0839,12121,031.4,045.5,0.249,757.7,01.16,0.508
2016-03-07 01:55:00,1856E-3,5C000400,-0724,0838,12081,031.4,045.5,0.249,757.8,01.16,0.508
2016-03-07 01:56:00,1849E-3,5C000400,-0724,0839,12056,031.4,045.5,0.249,757.7,01.16,0.508
2016-03-07 01:57:00,1708E-3,5C000400,-0724,0838,12114,031.4,045.5,0.250,757.8,01.16,0.508
2016-03-07 01:58:00,1828E-3,5C000400,-0724,0838,12092,031.4,045.5,0.250,757.8,01.16,0.508
2016-03-07 01:59:00,1847E-3,5C000400,-0724,0840,12173,031.4,045.5,0.250,757.7,01.16,0.508
2016-03-07 02:00:00,1865E-3,5C000400,-0724,0839,12080,031.4,045.5,0.250,757.8,01.16,0.508
2016-03-07 02:01:00,1959E-3,5C000400,-0724,0838,12134,031.4,045.5,0.250,757.7,01.16,0.508
2016-03-07 02:02:00,1760E-3,5C000400,-0724,0839,12001,031.4,045.5,0.250,757.6,01.16,0.508
2016-03-07 02:03:00,1756E-3,5C000400,-0724,0838,11941,031.4,045.5,0.250,757.4,01.16,0.508
2016-03-07 02:04:00,1858E-3,5C000400,-0724,0839,12198,031.4,045.5,0.250,757.4,01.16,0.508
2016-03-07 02:05:00,1702E-3,5C000400,-0724,0839,12153,031.4,045.5,0.250,757.4,01.16,0.508
2016-03-07 02:06:00,1766E-3,5C000400,-0724,0839,12103,031.4,045.5,0.250,757.5,01.16,0.508
2016-03-07 02:07:00,1740E-3,5C000400,-0724,0839,12074,031.4,045.5,0.249,757.5,01.16,0.508
2016-03-07 02:08:00,1803E-3,5C000400,-0724,0838,12048,031.4,045.5,0.249,757.5,01.16,0.508
2016-03-07 02:09:00,1825E-3,5C000400,-0724,0839,12172,031.4,045.5,0.249,757.5,01.16,0.508
2016-03-07 02:10:00,1826E-3,5C000400,-0724,0839,12206,031.4,045.5,0.249,757.4,01.16,0.508
2016-03-07 02:11:00,1738E-3,5C000400,-0724,0839,12180,031.5,045.5,0.249,757.5,01.16,0.508
2016-03-07 02:12:00,1900E-3,5C000400,-0724,0839,12050,031.5,045.5,0.249,757.5,01.16,0.508
2016-03-07 02:13:00,1935E-3,5C000400,-0724,0839,12215,031.4,045.5,0.249,757.5,01.16,0.508
2016-03-07 02:14:00,1746E-3,5C000400,-0724,0839,12145,031.4,045.5,0.250,757.4,01.16,0.508
2016-03-07 02:15:00,1752E-3,5C000400,-0724,0838,12089,031.4,045.5,0.250,757.5,01.16,0.508
2016-03-07 02:16:00,1767E-3,5C000400,-0724,0839,12169,031.4,045.5,0.250,757.5,01.16,0.508
2016-03-07 02:17:00,1776E-3,5C000400,-0724,0839,12066,031.5,045.5,0.250,757.5,01.16,0.508
2016-03-07 02:18:00,1831E-3,5C000400,-0724,0839,12161,031.5,045.6,0.250,757.5,01.16,0.508
2016-03-07 02:19:00,1787E-3,5C000400,-0724,0839,12123,031.5,045.5,0.250,757.5,01.16,0.508
2016-03-07 02:20:00,1838E-3,5C000400,-0724,0839,11998,031.5,045.5,0.249,757.5,01.16,0.508
2016-03-07 02:21:00,1778E-3,5C000400,-0724,0839,11865,031.4,045.5,0.249,757.4,01.16,0.508
2016-03-07 02:22:00,1865E-3,5C000400,-0724,0839,12141,031.4,045.5,0.249,757.4,01.16,0.508
2016-03-07 02:23:00,1854E-3,5C000400,-0724,0839,12146,031.5,045.5,0.249,757.4,01.16,0.508
2016-03-07 02:24:00,1848E-3,5C000400,-0724,0839,12020,031.5,045.5,0.249,757.4,01.16,0.508
2016-03-07 02:25:00,1831E-3,5C000400,-0724,0838,12083,031.5,045.5,0.249,757.5,01.16,0.508
2016-03-07 02:26:00,1798E-3,5C000400,-0724,0839,12105,031.5,045.5,0.249,757.5,01.16,0.508
2016-03-07 02:27:00,1739E-3,5C000400,-0724,0839,12006,031.5,045.5,0.249,757.5,01.16,0.508
2016-03-07 02:28:00,1784E-3,5C000400,-0724,0838,12133,031.4,045.5,0.249,757.4,01.16,0.508
2016-03-07 02:29:00,1827E-3,5C000400,-0724,0839,12203,031.4,045.5,0.250,757.4,01.16,0.508
2016-03-07 02:30:00,1793E-3,5C000400,-0724,0840,12087,031.5,045.5,0.250,757.4,01.16,0.508
2016-03-07 02:31:00,1765E-3,5C000400,-0724,0839,12114,031.5,045.5,0.250,757.4,01.16,0.508
2016-03-07 02:32:00,1880E-3,5C000400,-0724,0839,12125,031.5,045.5,0.250,757.4,01.16,0.508
2016-03-07 02:33:00,1932E-3,5C000400,-0724,0839,12212,031.5,045.5,0.250,757.4,01.16,0.508
2016-03-07 02:34:00,1794E-3,5C000400,-0724,0838,12132,031.5,045.5,0.250,757.4,01.16,0.508
2016-03-07 02:35:00,1750E-3,5C000400,-0724,0838,12012,031.4,045.5,0.249,757.4,01.16,0.508
2016-03-07 02:36:00,1861E-3,5C000400,-0724,0839,12099,031.5,045.5,0.249,757.4,01.16,0.508
2016-03-07 02:37:00,1862E-3,5C000400,-0724,0839,12035,031.5,045.5,0.249,757.3,01.16,0.508
2016-03-07 02:38:00,1839E-3,5C000400,-0724,0839,12102,031.5,045.5,0.249,757.4,01.16,0.508
2016-03-07 02:39:00,1867E-3,5C000400,-0724,0839,12012,031.5,045.5,0.249,757.4,01.16,0.508
2016-03-07 02:40:00,1755E-3,5C000400,-0724,0838,12053,031.5,045.5,0.249,757.4,01.16,0.508
2016-03-07 02:41:00,1747E-3,5C000400,-0724,0839,12217,031.5,045.5,0.249,757.4,01.16,0.508
2016-03-07 02:42:00,1843E-3,5C000400,-0724,0839,12017,031.5,045.5,0.250,757.4,01.16,0.508
2016-03-07 02:43:00,1854E-3,5C000400,-0724,0839,12200,031.5,045.5,0.250,757.2,01.16,0.508
2016-03-07 02:44:00,1866E-3,5C000400,-0724,0839,11887,031.5,045.5,0.250,757.2,01.16,0.508
2016-03-07 02:45:00,1801E-3,5C000400,-0724,0839,12126,031.5,045.5,0.250,757.1,01.16,0.508
2016-03-07 02:46:00,1902E-3,5C000400,-0724,0839,12145,031.5,045.5,0.249,757.1,01.16,0.508
2016-03-07 02:47:00,1706E-3,5C000400,-0724,0839,12073,031.5,045.5,0.249,757.1,01.16,0.508
2016-03-07 02:48:00,1750E-3,5C000400,-0724,0839,12131,031.5,045.5,0.249,757.0,01.16,0.508
2016-03-07 02:49:00,1849E-3,5C000400,-0724,0839,12138,031.5,045.5,0.249,757.0,01.16,0.508
2016-03-07 02:50:00,1861E-3,5C000400,-0724,0839,12187,031.5,045.5,0.249,757.1,01.16,0.508
2016-03-07 02:51:00,1816E-3,5C000400,-0724,0839,12248,031.5,045.5,0.249,757.0,01.16,0.508
2016-03-07 02:52:00,1846E-3,5C000400,-0724,0840,12111,031.5,045.5,0.249,757.1,01.16,0.508
2016-03-07 02:53:00,1864E-3,5C000400,-0724,0839,12023,031.5,045.6,0.249,757.1,01.16,0.508
2016-03-07 02:54:00,1791E-3,5C000400,-0724,0839,12160,031.5,045.6,0.249,757.1,01.16,0.508
2016-03-07 02:55:00,1774E-3,5C000400,-0724,0839,12192,031.5,045.5,0.249,757.1,01.16,0.508
2016-03-07 02:56:00,1835E-3,5C000400,-0724,0839,12056,031.5,045.5,0.249,757.2,01.16,0.508
2016-03-07 02:57:00,1919E-3,5C000400,-0724,0838,12045,031.5,045.5,0.249,757.2,01.16,0.508
2016-03-07 02:58:00,1898E-3,5C000400,-0724,0839,12248,031.5,045.5,0.250,757.1,01.16,0.508
2016-03-07 02:59:00,1865E-3,5C000400,-0724,0839,12175,031.5,045.6,0.250,757.1,01.16,0.508
2016-03-07 03:00:00,1796E-3,5C000400,-0724,0839,12076,031.5,045.5,0.250,757.2,01.16,0.508
2016-03-07 03:01:00,1868E-3,5C000400,-0724,0840,12165,031.5,045.5,0.249,757.2,01.16,0.508
2016-03-07 03:02:00,1783E-3,5C000400,-0724,0839,12047,031.5,045.5,0.250,757.1,01.16,0.508
2016-03-07 03:03:00,1778E-3,5C000400,-0724,0838,12224,031.5,045.5,0.249,757.1,01.16,0.508
2016-03-07 03:04:00,1840E-3,5C000400,-0724,0839,12064,031.5,045.5,0.249,757.0,01.16,0.508
2016-03-07 03:05:00,1676E-3,5C000400,-0724,0839,11778,031.5,045.5,0.249,757.0,01.16,0.508
2016-03-07 03:06:00,1794E-3,5C000400,-0724,0839,12094,031.5,045.5,0.249,756.9,01.16,0.508
2016-03-07 03:07:00,1871E-3,5C000400,-0724,0839,12157,031.5,045.5,0.249,757.0,01.16,0.508
2016-03-07 03:08:00,1840E-3,5C000400,-0724,0838,12117,031.5,045.5,0.249,757.0,01.16,0.508
2016-03-07 03:09:00,1902E-3,5C000400,-0724,0840,12247,031.5,045.5,0.249,756.9,01.16,0.508
2016-03-07 03:10:00,1871E-3,5C000400,-0724,0839,12021,031.5,045.5,0.249,757.0,01.16,0.508
2016-03-07 03:11:00,1744E-3,5C000400,-0724,0839,12185,031.5,045.5,0.249,756.9,01.16,0.508
2016-03-07 03:12:00,1798E-3,5C000400,-0724,0839,12180,031.5,045.5,0.249,756.9,01.16,0.508
2016-03-07 03:13:00,1827E-3,5C000400,-0724,0839,12065,031.5,045.5,0.249,756.9,01.16,0.508
2016-03-07 03:14:00,1917E-3,5C000400,-0724,0838,12011,031.5,045.5,0.250,757.0,01.16,0.508
2016-03-07 03:15:00,1785E-3,5C000400,-0724,0839,12173,031.5,045.5,0.249,756.8,01.16,0.508
2016-03-07 03:16:00,1860E-3,5C000400,-0724,0839,11919,031.5,045.6,0.250,756.9,01.16,0.508
2016-03-07 03:17:00,1775E-3,5C000400,-0724,0838,12158,031.5,045.5,0.250,756.9,01.16,0.508
2016-03-07 03:18:00,1774E-3,5C000400,-0724,0839,12088,031.5,045.5,0.250,756.9,01.16,0.508
2016-03-07 03:19:00,1817E-3,5C000400,-0724,0840,12061,031.5,045.5,0.249,756.9,01.16,0.508
2016-03-07 03:20:00,1822E-3,5C000400,-0724,0839,12190,031.5,045.5,0.249,756.8,01.16,0.508
2016-03-07 03:21:00,1904E-3,5C000400,-0724,0839,12218,031.5,045.5,0.249,756.9,01.16,0.508
2016-03-07 03:22:00,1860E-3,5C000400,-0724,0839,12020,031.5,045.5,0.249,756.8,01.16,0.508
2016-03-07 03:23:00,1703E-3,5C000400,-0724,0839,12100,031.5,045.5,0.249,756.9,01.16,0.508
2016-03-07 03:24:00,1794E-3,5C000400,-0724,0839,12015,031.5,045.5,0.249,756.8,01.16,0.508
2016-03-07 03:25:00,1855E-3,5C000400,-0724,0840,12189,031.5,045.5,0.249,756.7,01.16,0.508
2016-03-07 03:26:00,1778E-3,5C000400,-0724,0838,12144,031.5,045.5,0.249,756.7,01.16,0.508
2016-03-07 03:27:00,1847E-3,5C000400,-0724,0839,12111,031.5,045.5,0.249,756.8,01.16,0.508
2016-03-07 03:28:00,1839E-3,5C000400,-0724,0839,12106,031.5,045.5,0.249,756.8,01.16,0.508
2016-03-07 03:29:00,1795E-3,5C000400,-0724,0839,12082,031.5,045.5,0.249,756.7,01.16,0.508
2016-03-07 03:30:00,1775E-3,5C000400,-0724,0839,12089,031.5,045.5,0.249,756.7,01.16,0.508
2016-03-07 03:31:00,1815E-3,5C000400,-0724,0839,12052,031.5,045.5,0.249,756.7,01.16,0.508
2016-03-07 03:32:00,1760E-3,5C000400,-0724,0838,12279,031.5,045.5,0.249,756.7,01.16,0.508
2016-03-07 03:33:00,1829E-3,5C000400,-0724,0839,12201,031.5,045.5,0.249,756.6,01.16,0.508
2016-03-07 03:34:00,1865E-3,5C000400,-0724,0839,12005,031.5,045.5,0.249,756.7,01.16,0.508
2016-03-07 03:35:00,1771E-3,5C000400,-0724,0839,12136,031.5,045.5,0.249,756.8,01.16,0.508
2016-03-07 03:36:00,1914E-3,5C000400,-0724,0840,12128,031.5,045.5,0.249,756.8,01.16,0.508
2016-03-07 03:37:00,1873E-3,5C000400,-0724,0839,12163,031.5,045.5,0.249,756.8,01.16,0.508
2016-03-07 03:38:00,1784E-3,5C000400,-0724,0839,12139,031.5,045.5,0.249,756.8,01.16,0.508
2016-03-07 03:39:00,1840E-3,5C000400,-0724,0839,12127,031.5,045.5,0.249,756.6,01.16,0.508
2016-03-07 03:40:00,1692E-3,5C000400,-0724,0839,12100,031.5,045.5,0.249,756.6,01.16,0.508
2016-03-07 03:41:00,1867E-3,5C000400,-0724,0839,12114,031.5,045.5,0.249,756.7,01.16,0.508
2016-03-07 03:42:00,1809E-3,5C000400,-0724,0839,12032,031.5,045.5,0.250,756.7,01.16,0.508
2016-03-07 03:43:00,1772E-3,5C000400,-0724,0840,12146,031.5,045.5,0.250,756.7,01.16,0.508
2016-03-07 03:44:00,1906E-3,5C000400,-0724,0838,12137,031.5,045.5,0.250,756.6,01.16,0.508
2016-03-07 03:45:00,1972E-3,5C000400,-0724,0838,12037,031.5,045.5,0.250,756.6,01.16,0.508
2016-03-07 03:46:00,1865E-3,5C000400,-0724,0839,12119,031.5,045.5,0.249,756.6,01.16,0.508
2016-03-07 03:47:00,1908E-3,5C000400,-0724,0839,12042,031.5,045.5,0.249,756.5,01.16,0.508
2016-03-07 03:48:00,1925E-3,5C000400,-0724,0839,12008,031.5,045.5,0.249,756.5,01.16,0.508
2016-03-07 03:49:00,1794E-3,5C000400,-0724,0839,12189,031.5,045.5,0.249,756.4,01.16,0.508
2016-03-07 03:50:00,1776E-3,5C000400,-0724,0839,11974,031.5,045.6,0.249,756.3,01.16,0.508
2016-03-07 03:51:00,1783E-3,5C000400,-0724,0838,12009,031.5,045.5,0.249,756.4,01.16,0.508
2016-03-07 03:52:00,1852E-3,5C000400,-0724,0839,12070,031.5,045.5,0.249,756.4,01.16,0.508
2016-03-07 03:53:00,1792E-3,5C000400,-0724,0839,12085,031.5,045.5,0.249,756.1,01.16,0.508
2016-03-07 03:54:00,1907E-3,5C000400,-0724,0840,12069,031.5,045.5,0.249,756.1,01.16,0.508
2016-03-07 03:55:00,1864E-3,5C000400,-0724,0839,12199,031.5,045.5,0.249,756.2,01.16,0.508
2016-03-07 03:56:00,1769E-3,5C000400,-0724,0838,12115,031.5,045.5,0.250,756.1,01.16,0.508
2016-03-07 03:57:00,1874E-3,5C000400,-0724,0838,12073,031.5,045.5,0.250,756.1,01.16,0.508
2016-03-07 03:58:00,1813E-3,5C000400,-0724,0839,12117,031.5,045.5,0.249,756.0,01.16,0.508
2016-03-07 03:59:00,1827E-3,5C000400,-0724,0839,12108,031.5,045.5,0.249,756.1,01.16,0.508
2016-03-07 04:00:00,1934E-3,5C000400,-0724,0838,12089,031.5,045.5,0.249,756.0,01.16,0.508
2016-03-07 04:01:00,1766E-3,5C000400,-0724,0839,12094,031.5,045.5,0.249,755.9,01.16,0.508
2016-03-07 04:02:00,1849E-3,5C000400,-0724,0839,11912,031.5,045.5,0.249,756.1,01.16,0.508
2016-03-07 04:03:00,1942E-3,5C000400,-0724,0839,12006,031.5,045.5,0.249,756.1,01.16,0.508
2016-03-07 04:04:00,1781E-3,5C000400,-0724,0839,12079,031.5,045.5,0.249,756.0,01.16,0.508
2016-03-07 04:05:00,1756E-3,5C000400,-0724,0839,12131,031.4,045.5,0.249,756.0,01.16,0.508
2016-03-07 04:06:00,1833E-3,5C000400,-0724,0839,12139,031.5,045.5,0.249,756.2,01.16,0.508
2016-03-07 04:07:00,1872E-3,5C000400,-0724,0839,12264,031.5,045.5,0.249,756.2,01.16,0.508
2016-03-07 04:08:00,1784E-3,5C000400,-0724,0839,12111,031.5,045.5,0.250,756.3,01.16,0.508
2016-03-07 04:09:00,1832E-3,5C000400,-0724,0839,12086,031.5,045.5,0.250,756.3,01.16,0.508
2016-03-07 04:10:00,1985E-3,5C000400,-0724,0839,12135,031.5,045.5,0.250,756.4,01.16,0.508
2016-03-07 04:11:00,1761E-3,5C000400,-0724,0839,12116,031.5,045.5,0.250,756.3,01.16,0.508
2016-03-07 04:12:00,1902E-3,5C000400,-0724,0838,12141,031.5,045.5,0.249,756.3,01.16,0.508
2016-03-07 04:13:00,1868E-3,5C000400,-0724,0840,12158,031.5,045.5,0.249,756.2,01.16,0.508
2016-03-07 04:14:00,1759E-3,5C000400,-0724,0838,12139,031.5,045.5,0.249,756.1,01.16,0.508
2016-03-07 04:15:00,1736E-3,5C000400,-0724,0839,12186,031.5,045.5,0.249,756.0,01.16,0.508
2016-03-07 04:16:00,1843E-3,5C000400,-0724,0838,12039,031.5,045.5,0.249,755.9,01.16,0.508
2016-03-07 04:17:00,1748E-3,5C000400,-0724,0838,12093,031.5,045.5,0.249,756.0,01.16,0.508
2016-03-07 04:18:00,1768E-3,5C000400,-0724,0839,11965,031.5,045.5,0.249,756.0,01.16,0.508
2016-03-07 04:19:00,1843E-3,5C000400,-0724,0838,12161,031.5,045.5,0.249,755.9,01.16,0.508
2016-03-07 04:20:00,1881E-3,5C000400,-0724,0839,11995,031.5,045.5,0.249,756.1,01.16,0.508